Total_Precipitation_Accumulation
0.15 0.22 0.25 0.30 0.25 0.18 0.16 0.17 0.27 0.35 0.51 0.64 0.63 0.72 1.00 0.85 0.74 0.67 0.66 0.57 0.54 0.63 0.77 0.85 0.88 0.88 0.98 1.11 1.22 1.33 1.45 1.58 1.82 2.09 1.95 1.71 1.68 1.66 1.61 1.70 1.83 2.13 2.28 2.36
0.15 0.20 0.23 0.26 0.27 0.21 0.18 0.17 0.17 0.28 0.48 0.57 0.66 0.70 0.80 0.80 0.83 0.82 0.75 0.72 0.73 0.89 0.92 0.94 0.98 0.93 0.92 0.96 1.03 1.20 1.35 1.49 1.66 1.78 1.64 1.49 1.38 1.41 1.44 1.54 1.72 1.89 2.04 2.16
0.28 0.23 0.26 0.31 0.28 0.24 0.21 0.27 0.27 0.36 0.48 0.54 0.75 0.72 0.72 0.88 0.97 0.91 0.74 0.79 0.83 0.88 1.00 0.94 0.92 0.91 0.90 0.94 1.11 1.29 1.33 1.37 1.51 1.62 1.62 1.52 1.35 1.36 1.42 1.52 1.67 1.76 1.81 1.87
0.42 0.44 0.51 0.41 0.36 0.31 0.30 0.35 0.37 0.40 0.47 0.57 0.75 0.75 0.64 0.69 0.74 0.82 0.85 0.93 0.91 0.90 0.95 0.89 0.84 0.91 0.92 0.90 1.12 1.33 1.37 1.44 1.61 1.77 1.78 1.70 1.63 1.59 1.68 1.75 1.75 1.74 1.79 1.83
0.59 0.59 0.52 0.51 0.50 0.51 0.56 0.72 0.65 0.56 0.54 0.60 0.60 0.69 0.76 0.66 0.61 0.72 0.83 1.01 1.05 0.97 1.02 1.05 1.06 1.10 1.09 1.08 1.27 1.48 1.59 1.63 1.70 1.84 1.88 1.90 1.98 2.03 2.09 2.09 1.96 1.92 1.99 2.02
0.66 0.76 0.75 0.73 0.62 0.58 0.74 1.18 1.06 0.83 0.69 0.66 0.67 1.00 1.15 0.94 0.79 0.80 0.80 0.95 1.14 1.14 0.99 1.03 1.08 1.17 1.36 1.42 1.48 1.55 1.69 1.84 1.87 2.02 2.13 2.10 2.21 2.35 2.47 2.50 2.39 2.41 2.30 2.15
0.75 0.85 0.90 0.84 0.64 0.67 1.25 1.62 1.26 1.05 0.97 0.87 0.95 0.99 1.05 0.93 0.85 0.86 0.83 0.90 1.01 1.22 1.09 1.04 1.14 1.29 1.51 1.62 1.75 1.79 1.84 1.91 1.99 2.16 2.33 2.48 2.67 2.83 2.83 2.78 2.79 2.71 2.45 2.32
0.95 1.16 1.23 0.83 0.81 1.12 1.41 1.24 1.26 1.29 1.35 1.27 1.10 0.89 0.89 0.93 0.83 0.83 0.83 0.85 0.86 0.94 1.03 1.06 1.15 1.43 1.62 1.64 1.69 1.83 1.97 2.08 2.23 2.34 2.39 2.51 2.84 2.95 2.93 2.88 2.75 2.57 2.41 2.21
1.18 1.35 1.13 0.90 1.00 1.06 1.19 1.27 1.32 1.37 1.41 1.28 1.09 0.96 0.95 0.96 0.86 0.79 0.77 0.82 0.86 0.89 0.99 1.12 1.27 1.51 1.82 1.89 1.83 1.83 1.97 2.16 2.33 2.45 2.65 2.84 2.96 2.90 2.79 2.74 2.63 2.48 2.35 2.15
1.36 1.36 1.10 1.05 1.08 1.05 1.11 1.17 1.28 1.22 1.17 1.17 1.12 0.97 0.95 0.91 0.79 0.76 0.78 0.81 0.85 0.93 1.03 1.19 1.39 1.58 1.84 1.81 1.76 1.81 1.84 2.00 2.14 2.22 2.29 2.41 2.58 2.51 2.37 2.35 2.39 2.38 2.34 2.22
1.56 1.56 1.44 1.38 1.35 1.24 1.10 1.05 1.01 1.04 1.04 1.11 1.14 1.09 0.94 0.91 0.84 0.74 0.75 0.79 0.85 0.99 1.19 1.28 1.39 1.50 1.55 1.54 1.61 1.65 1.65 1.73 1.78 1.83 1.92 2.01 2.08 2.14 2.09 2.08 2.05 2.05 2.05 2.03
1.82 1.62 1.55 1.73 1.58 1.43 1.23 1.13 1.07 1.03 1.03 1.09 1.15 1.20 1.01 0.90 0.89 0.80 0.76 0.83 0.97 1.08 1.20 1.31 1.49 1.67 1.69 1.63 1.69 1.73 1.68 1.63 1.61 1.66 1.72 1.73 1.79 1.81 1.80 1.69 1.60 1.51 1.44 1.40
1.57 1.47 1.46 1.49 1.44 1.35 1.27 1.27 1.32 1.26 1.14 1.08 1.10 1.10 0.99 0.92 0.92 0.86 0.85 0.92 1.05 1.07 1.11 1.25 1.40 1.53 1.67 1.80 1.86 1.90 1.80 1.68 1.61 1.54 1.55 1.58 1.61 1.68 1.71 1.60 1.42 1.27 1.15 1.06
1.57 1.48 1.51 1.44 1.39 1.31 1.24 1.29 1.35 1.26 1.21 1.14 1.13 1.08 1.03 0.95 0.96 1.01 0.96 1.01 1.14 1.18 1.19 1.29 1.39 1.45 1.53 1.75 1.91 1.97 1.91 1.79 1.64 1.53 1.48 1.49 1.52 1.55 1.63 1.72 1.60 1.39 1.17 0.97
1.81 1.65 1.55 1.52 1.51 1.43 1.26 1.23 1.25 1.18 1.10 1.11 1.12 1.12 1.09 1.09 1.07 1.08 1.05 1.02 1.11 1.21 1.26 1.35 1.40 1.42 1.53 1.64 1.71 1.74 1.70 1.63 1.54 1.48 1.47 1.47 1.50 1.50 1.48 1.52 1.51 1.45 1.30 1.12
1.75 1.62 1.45 1.44 1.52 1.52 1.41 1.32 1.29 1.25 1.17 1.10 1.11 1.10 1.12 1.17 1.12 1.08 1.05 1.06 1.15 1.19 1.19 1.29 1.40 1.42 1.52 1.66 1.71 1.73 1.71 1.67 1.53 1.47 1.51 1.53 1.52 1.52 1.48 1.54 1.53 1.50 1.38 1.19
1.69 1.63 1.47 1.33 1.35 1.40 1.35 1.25 1.20 1.22 1.21 1.16 1.09 1.03 1.00 1.03 1.12 1.12 1.06 1.02 1.10 1.22 1.25 1.37 1.43 1.42 1.53 1.69 1.80 1.77 1.71 1.66 1.56 1.47 1.46 1.53 1.55 1.51 1.46 1.48 1.47 1.50 1.39 1.20
1.41 1.41 1.37 1.30 1.22 1.17 1.21 1.17 1.12 1.13 1.18 1.15 1.08 1.05 1.08 1.14 1.25 1.32 1.29 1.24 1.26 1.27 1.27 1.32 1.37 1.41 1.49 1.61 1.69 1.68 1.68 1.62 1.49 1.32 1.30 1.35 1.39 1.41 1.42 1.41 1.44 1.48 1.41 1.21
1.23 1.35 1.34 1.26 1.27 1.15 1.20 1.20 1.17 1.16 1.12 1.10 1.08 1.06 1.09 1.22 1.35 1.45 1.53 1.53 1.51 1.45 1.37 1.30 1.40 1.39 1.48 1.58 1.60 1.60 1.55 1.47 1.34 1.17 1.15 1.26 1.33 1.38 1.38 1.34 1.33 1.34 1.25 1.13
1.31 1.36 1.33 1.26 1.29 1.30 1.27 1.25 1.22 1.24 1.13 1.06 1.11 1.16 1.22 1.29 1.41 1.51 1.54 1.52 1.46 1.43 1.37 1.27 1.22 1.22 1.30 1.43 1.53 1.50 1.44 1.39 1.34 1.18 1.13 1.27 1.37 1.45 1.40 1.31 1.29 1.25 1.14 1.10
1.31 1.31 1.23 1.14 1.11 1.10 1.08 1.09 1.12 1.17 1.23 1.22 1.34 1.44 1.48 1.44 1.47 1.62 1.74 1.62 1.38 1.36 1.32 1.29 1.21 1.19 1.18 1.30 1.40 1.40 1.38 1.37 1.40 1.30 1.23 1.26 1.31 1.35 1.31 1.22 1.17 1.13 1.10 1.12
1.28 1.29 1.26 1.19 1.11 1.02 0.93 0.92 1.02 1.12 1.22 1.34 1.43 1.54 1.59 1.61 1.65 1.65 1.58 1.59 1.47 1.49 1.42 1.32 1.26 1.21 1.18 1.19 1.24 1.30 1.31 1.33 1.41 1.38 1.32 1.36 1.41 1.42 1.40 1.32 1.27 1.20 1.16 1.15
1.23 1.29 1.25 1.18 1.19 1.11 1.01 0.99 0.97 1.04 1.11 1.18 1.30 1.53 1.63 1.62 1.69 1.87 1.68 1.35 1.28 1.36 1.36 1.34 1.28 1.19 1.09 0.98 1.07 1.18 1.21 1.27 1.30 1.26 1.21 1.20 1.22 1.25 1.24 1.16 1.12 1.12 1.13 1.11
1.27 1.26 1.27 1.23 1.22 1.13 1.07 1.05 1.07 1.11 1.06 1.07 1.17 1.37 1.58 1.69 1.63 1.55 1.56 1.45 1.27 1.19 1.12 1.14 1.12 1.08 1.06 0.98 1.03 1.12 1.17 1.24 1.20 1.12 1.10 1.11 1.14 1.15 1.12 1.10 1.08 1.06 1.08 1.10
1.28 1.25 1.21 1.22 1.27 1.27 1.19 1.17 1.21 1.20 1.16 1.17 1.16 1.21 1.33 1.51 1.61 1.46 1.27 1.21 1.14 1.02 0.96 0.97 0.93 0.94 0.94 0.94 0.95 1.02 1.14 1.23 1.21 1.10 1.03 1.05 1.06 1.05 0.99 0.97 1.01 1.07 1.10 1.09
1.27 1.27 1.26 1.25 1.23 1.22 1.23 1.31 1.43 1.39 1.38 1.44 1.33 1.24 1.28 1.33 1.35 1.37 1.27 1.15 1.06 0.97 0.88 0.91 0.89 0.87 0.86 0.93 0.93 0.95 1.04 1.16 1.20 1.16 1.06 1.06 1.02 0.99 0.98 0.96 0.91 0.92 0.95 0.95
1.33 1.30 1.29 1.27 1.24 1.20 1.28 1.39 1.51 1.54 1.58 1.65 1.60 1.41 1.31 1.24 1.23 1.26 1.25 1.20 1.10 1.00 0.95 0.91 0.86 0.84 0.86 0.87 0.82 0.80 0.87 0.97 1.03 1.08 1.12 1.14 1.14 1.11 1.04 0.98 0.90 0.85 0.85 0.86